Back to catalog

FENGYUN 1C DEB

AliveSSO
NORAD 29801·DEBRIS·🇨🇳 China

Launched May 10, 1999 from Taiyuan Satellite Launch Center

Loading…

Next Passes (next 24 hours)

TLE

FreshSource: Space-Track

Epoch: Sep 14, 2026, 05:56 UTC

1 29801U 99025CT  26257.24748604  .00000190  00000-0  76601-4 0  9996
2 29801  98.7766 168.6459 0103480 173.6774 338.3266 14.36137611 28942

Track FENGYUN 1C DEB in real time with AllMySat

Download on the App Store